User: anonymous   Login
Location: The Jewett Observatory
(46.7288°N, 117.1525°W)
Time: 08:34:58
(UTC-07:00)
Language:

Cosmos 1844 Rocket - Orbit

View from above orbital plane
View from above orbital plane
View from above satellite
View from above satellite

Ground track
Ground track

The orbit data is extracted from the following two-line orbital elements,

1 17974U 87041B   18115.94570338 +.00000118 +00000-0 +82042-4 0  9993
2 17974 071.0082 330.8908 0016171 275.0306 181.4481 14.17239918600792
Epoch (UTC): 25 April 2018 22:41:48
Eccentricity: 0.0016171
inclination: 71.0082°
perigee height: 823 km
apogee height: 846 km
right ascension of ascending node: 330.8908°
argument of perigee: 275.0306°
revolutions per day: 14.17239918
mean anomaly at epoch: 181.4481°
orbit number at epoch: 60079

The dashed part of the orbit path shows where the satellite is in the earth's shadow,  

DLR